Time,TemperatureF,DewpointF,PressureIn,WindDirection,WindDirectionDegrees,WindSpeedMPH,WindSpeedGustMPH,Humidity,HourlyPrecipIn,Conditions,Clouds,dailyrainin,SoftwareType,DateUTC
2013-06-22 00:00:00,83.1,78.1,29.97,East,99,16.0,21.0,85,0.00,RA,,0.00,WeatherDisplay:10.37,2013-06-22 06:00:00,
2013-06-22 00:15:00,83.1,78.4,29.96,ESE,102,10.0,21.0,86,0.00,CLR,,0.00,WeatherDisplay:10.37,2013-06-22 06:15:00,
2013-06-22 00:30:00,83.0,78.4,29.95,East,94,8.0,19.0,86,0.00,CLR,,0.00,WeatherDisplay:10.37,2013-06-22 06:30:00,
2013-06-22 00:45:00,82.9,77.9,29.95,East,95,14.0,20.0,85,0.00,CLR,,0.00,WeatherDisplay:10.37,2013-06-22 06:45:00,
2013-06-22 01:00:00,82.9,78.3,29.94,East,90,14.0,23.0,86,0.00,CLR,,0.00,WeatherDisplay:10.37,2013-06-22 07:00:00,
2013-06-22 01:15:00,82.9,78.3,29.94,East,96,15.0,21.0,86,0.00,CLR,,0.00,WeatherDisplay:10.37,2013-06-22 07:15:00,
2013-06-22 01:30:00,83.0,78.4,29.94,East,93,14.0,23.0,86,0.00,CLR,,0.00,WeatherDisplay:10.37,2013-06-22 07:30:00,
2013-06-22 01:45:00,82.9,78.3,29.94,East,93,8.0,19.0,86,0.00,CLR,,0.00,WeatherDisplay:10.37,2013-06-22 07:45:00,
2013-06-22 02:00:00,82.8,77.5,29.93,East,100,17.0,23.0,84,0.00,CLR,,0.00,WeatherDisplay:10.37,2013-06-22 08:00:00,
2013-06-22 02:15:00,82.9,77.6,29.93,ESE,108,7.0,19.0,84,0.00,CLR,,0.00,WeatherDisplay:10.37,2013-06-22 08:15:00,
2013-06-22 02:30:00,82.9,77.9,29.93,ESE,103,9.0,16.0,85,0.00,CLR,,0.00,WeatherDisplay:10.37,2013-06-22 08:30:00,
2013-06-22 02:45:00,82.9,77.9,29.93,ESE,107,12.0,19.0,85,0.00,CLR,,0.00,WeatherDisplay:10.37,2013-06-22 08:45:00,
2013-06-22 03:00:00,82.9,77.9,29.92,ESE,114,15.0,18.0,85,0.00,CLR,,0.00,WeatherDisplay:10.37,2013-06-22 09:00:00,
2013-06-22 03:15:00,82.9,77.9,29.92,ESE,111,15.0,19.0,85,0.00,CLR,,0.00,WeatherDisplay:10.37,2013-06-22 09:15:00,
2013-06-22 03:30:00,79.8,76.3,29.93,ESE,118,9.0,26.0,89,0.06,RA,,0.06,WeatherDisplay:10.37,2013-06-22 09:30:00,
2013-06-22 03:45:00,81.6,78.4,29.92,ESE,108,7.0,16.0,90,0.00,CLR,,0.06,WeatherDisplay:10.37,2013-06-22 09:45:00,
2013-06-22 04:00:00,82.1,78.2,29.93,ESE,118,9.0,16.0,88,0.00,CLR,,0.06,WeatherDisplay:10.37,2013-06-22 10:00:00,
2013-06-22 04:15:00,82.2,77.9,29.93,ESE,107,8.0,14.0,87,0.00,CLR,,0.06,WeatherDisplay:10.37,2013-06-22 10:15:00,
2013-06-22 04:30:00,82.4,78.1,29.92,East,88,10.0,18.0,87,0.00,CLR,,0.06,WeatherDisplay:10.37,2013-06-22 10:30:00,
2013-06-22 04:45:00,82.3,77.4,29.92,ESE,105,9.0,15.0,85,0.00,CLR,,0.06,WeatherDisplay:10.37,2013-06-22 10:45:00,
2013-06-22 05:00:00,82.6,78.0,29.92,ESE,111,6.0,14.0,86,0.00,CLR,,0.06,WeatherDisplay:10.37,2013-06-22 11:00:00,
2013-06-22 05:15:00,82.5,77.9,29.93,ESE,107,9.0,16.0,86,0.00,CLR,,0.06,WeatherDisplay:10.37,2013-06-22 11:15:00,
2013-06-22 05:30:00,82.6,78.0,29.94,East,91,8.0,14.0,86,0.00,CLR,,0.06,WeatherDisplay:10.37,2013-06-22 11:30:00,
2013-06-22 05:45:00,82.8,78.5,29.95,ESE,103,8.0,13.0,87,0.00,CLR,,0.06,WeatherDisplay:10.37,2013-06-22 11:45:00,
2013-06-22 06:00:00,82.8,78.2,29.95,East,82,9.0,19.0,86,0.00,CLR,,0.06,WeatherDisplay:10.37,2013-06-22 12:00:00,
2013-06-22 06:15:00,82.9,77.9,29.96,East,99,8.0,18.0,85,0.00,CLR,,0.06,WeatherDisplay:10.37,2013-06-22 12:15:00,
2013-06-22 06:30:00,83.3,77.6,29.97,ESE,106,13.0,20.0,83,0.01,,,0.07,WeatherDisplay:10.37,2013-06-22 12:30:00,
2013-06-22 06:45:00,83.6,78.2,29.97,ESE,109,10.0,18.0,84,0.00,CLR,,0.07,WeatherDisplay:10.37,2013-06-22 12:45:00,
2013-06-22 07:00:00,83.9,77.8,29.97,East,92,9.0,16.0,82,0.00,CLR,,0.07,WeatherDisplay:10.37,2013-06-22 13:00:00,
2013-06-22 07:15:00,84.2,78.5,29.97,ESE,105,8.0,16.0,83,0.00,CLR,,0.07,WeatherDisplay:10.37,2013-06-22 13:15:00,
2013-06-22 07:30:00,84.5,78.4,29.97,ESE,103,7.0,14.0,82,0.00,CLR,,0.07,WeatherDisplay:10.37,2013-06-22 13:30:00,
2013-06-22 07:45:00,84.7,78.6,29.97,ESE,112,6.0,15.0,82,0.00,CLR,,0.07,WeatherDisplay:10.37,2013-06-22 13:45:00,
2013-06-22 08:00:00,84.8,79.1,29.97,ESE,113,5.0,15.0,83,0.00,CLR,,0.07,WeatherDisplay:10.37,2013-06-22 14:00:00,
2013-06-22 08:15:00,84.7,78.6,29.98,East,100,12.0,18.0,82,0.00,CLR,,0.07,WeatherDisplay:10.37,2013-06-22 14:15:00,
2013-06-22 08:30:00,84.4,77.6,29.99,East,93,10.0,15.0,80,0.00,CLR,,0.07,WeatherDisplay:10.37,2013-06-22 14:30:00,
2013-06-22 08:45:00,85.0,79.3,29.98,East,86,10.0,15.0,83,0.00,CLR,,0.07,WeatherDisplay:10.37,2013-06-22 14:45:00,
2013-06-22 09:00:00,85.0,78.5,29.99,East,87,8.0,18.0,81,0.00,CLR,,0.07,WeatherDisplay:10.37,2013-06-22 15:00:00,
2013-06-22 09:15:00,85.3,78.8,29.99,East,92,15.0,16.0,81,0.00,CLR,,0.07,WeatherDisplay:10.37,2013-06-22 15:15:00,
2013-06-22 09:30:00,85.4,79.6,29.99,East,99,8.0,16.0,83,0.00,CLR,,0.07,WeatherDisplay:10.37,2013-06-22 15:30:00,
2013-06-22 09:45:00,85.3,77.7,29.98,East,89,13.0,18.0,78,0.00,CLR,,0.07,WeatherDisplay:10.37,2013-06-22 15:45:00,
2013-06-22 10:00:00,85.2,78.3,29.99,East,92,8.0,19.0,80,0.00,CLR,,0.07,WeatherDisplay:10.37,2013-06-22 16:00:00,
2013-06-22 10:15:00,85.0,78.1,29.99,East,90,13.0,18.0,80,0.00,CLR,,0.07,WeatherDisplay:10.37,2013-06-22 16:15:00,
2013-06-22 10:30:00,85.4,77.4,29.98,ESE,104,8.0,15.0,77,0.00,CLR,,0.07,WeatherDisplay:10.37,2013-06-22 16:30:00,
2013-06-22 10:45:00,85.8,78.2,29.99,ESE,107,9.0,13.0,78,0.00,CLR,,0.07,WeatherDisplay:10.37,2013-06-22 16:45:00,
2013-06-22 11:00:00,85.9,77.5,29.99,ESE,107,9.0,13.0,76,0.00,CLR,,0.07,WeatherDisplay:10.37,2013-06-22 17:00:00,
2013-06-22 11:15:00,86.1,77.6,29.98,ESE,111,7.0,13.0,76,0.00,CLR,,0.07,WeatherDisplay:10.37,2013-06-22 17:15:00,
2013-06-22 11:30:00,86.3,78.2,29.98,ESE,107,5.0,13.0,77,0.00,CLR,,0.07,WeatherDisplay:10.37,2013-06-22 17:30:00,
2013-06-22 11:45:00,86.1,77.6,29.98,East,96,6.0,14.0,76,0.00,CLR,,0.07,WeatherDisplay:10.37,2013-06-22 17:45:00,
2013-06-22 12:00:00,86.1,77.6,29.98,East,86,6.0,14.0,76,0.00,CLR,,0.07,WeatherDisplay:10.37,2013-06-22 18:00:00,
2013-06-22 12:15:00,86.2,78.5,29.98,East,93,6.0,12.0,78,0.00,CLR,,0.07,WeatherDisplay:10.37,2013-06-22 18:15:00,
2013-06-22 12:30:00,86.1,78.9,29.97,East,93,5.0,12.0,79,0.00,CLR,,0.07,WeatherDisplay:10.37,2013-06-22 18:30:00,
2013-06-22 12:45:00,85.7,78.8,29.97,East,91,7.0,12.0,80,0.00,CLR,,0.07,WeatherDisplay:10.37,2013-06-22 18:45:00,
2013-06-22 13:00:00,85.6,78.3,29.97,East,89,8.0,13.0,79,0.00,CLR,,0.07,WeatherDisplay:10.37,2013-06-22 19:00:00,
2013-06-22 13:15:00,85.5,78.7,29.97,East,90,8.0,13.0,80,0.00,CLR,,0.07,WeatherDisplay:10.37,2013-06-22 19:15:00,
2013-06-22 13:30:00,85.9,78.6,29.97,East,95,5.0,12.0,79,0.00,CLR,,0.07,WeatherDisplay:10.37,2013-06-22 19:30:00,
2013-06-22 13:45:00,86.2,79.3,29.97,ESE,105,6.0,14.0,80,0.00,CLR,,0.07,WeatherDisplay:10.37,2013-06-22 19:45:00,
2013-06-22 14:00:00,85.7,78.8,29.96,ESE,108,7.0,14.0,80,0.00,CLR,,0.07,WeatherDisplay:10.37,2013-06-22 20:00:00,
2013-06-22 14:15:00,86.2,78.5,29.95,ESE,105,6.0,10.0,78,0.00,CLR,,0.07,WeatherDisplay:10.37,2013-06-22 20:15:00,
2013-06-22 14:30:00,85.8,78.1,29.95,East,99,7.0,15.0,78,0.00,CLR,,0.07,WeatherDisplay:10.37,2013-06-22 20:30:00,
2013-06-22 14:45:00,85.4,77.8,29.95,East,99,7.0,15.0,78,0.00,CLR,,0.07,WeatherDisplay:10.37,2013-06-22 20:45:00,
2013-06-22 15:00:00,85.4,78.2,29.94,East,94,12.0,15.0,79,0.00,CLR,,0.07,WeatherDisplay:10.37,2013-06-22 21:00:00,
2013-06-22 15:15:00,81.8,77.2,29.94,ESE,111,14.0,25.0,86,0.06,RA,,0.13,WeatherDisplay:10.37,2013-06-22 21:15:00,
2013-06-22 15:30:00,81.5,77.9,29.93,East,93,14.0,21.0,89,0.00,CLR,,0.13,WeatherDisplay:10.37,2013-06-22 21:30:00,
2013-06-22 15:45:00,82.7,78.0,29.93,East,92,14.0,20.0,86,0.00,CLR,,0.13,WeatherDisplay:10.37,2013-06-22 21:45:00,
2013-06-22 16:00:00,83.8,78.1,29.92,East,100,13.0,19.0,83,0.00,CLR,,0.13,WeatherDisplay:10.37,2013-06-22 22:00:00,
2013-06-22 16:15:00,84.2,78.5,29.93,East,91,10.0,18.0,83,0.00,CLR,,0.13,WeatherDisplay:10.37,2013-06-22 22:15:00,
2013-06-22 16:26:00,84.1,78.0,29.93,East,87,10.0,18.0,82,0.00,CLR,,0.13,WeatherDisplay:10.37,2013-06-22 22:26:00,
2013-06-22 16:45:00,84.2,78.1,29.93,East,95,7.0,18.0,82,0.00,CLR,,0.13,WeatherDisplay:10.37,2013-06-22 22:45:00,
2013-06-22 17:00:00,84.1,78.0,29.93,East,99,7.0,18.0,82,0.00,CLR,,0.13,WeatherDisplay:10.37,2013-06-22 23:00:00,
2013-06-22 17:15:00,84.0,77.9,29.93,East,98,7.0,19.0,82,0.00,CLR,,0.13,WeatherDisplay:10.37,2013-06-22 23:15:00,
2013-06-22 17:30:00,83.8,77.8,29.93,East,100,7.0,14.0,82,0.00,CLR,,0.13,WeatherDisplay:10.37,2013-06-22 23:30:00,
2013-06-22 17:45:00,83.5,77.4,29.93,ESE,104,10.0,16.0,82,0.00,CLR,,0.13,WeatherDisplay:10.37,2013-06-22 23:45:00,
2013-06-22 18:00:00,83.2,77.9,29.94,East,86,10.0,16.0,84,0.00,CLR,,0.13,WeatherDisplay:10.37,2013-06-23 00:00:00,
2013-06-22 18:15:00,83.1,77.7,29.94,East,93,10.0,16.0,84,0.00,CLR,,0.13,WeatherDisplay:10.37,2013-06-23 00:15:00,
2013-06-22 18:30:00,83.1,78.1,29.95,East,101,9.0,15.0,85,0.00,CLR,,0.13,WeatherDisplay:10.37,2013-06-23 00:30:00,
2013-06-22 18:45:00,83.0,78.0,29.95,East,98,10.0,15.0,85,0.00,CLR,,0.13,WeatherDisplay:10.37,2013-06-23 00:45:00,
2013-06-22 19:00:00,83.0,77.7,29.96,East,92,7.0,15.0,84,0.00,CLR,,0.13,WeatherDisplay:10.37,2013-06-23 01:00:00,
2013-06-22 19:15:00,83.1,77.8,29.96,ESE,103,7.0,13.0,84,0.00,CLR,,0.13,WeatherDisplay:10.37,2013-06-23 01:15:00,
2013-06-22 19:30:00,83.2,77.9,29.97,ESE,103,8.0,15.0,84,0.00,CLR,,0.13,WeatherDisplay:10.37,2013-06-23 01:30:00,
2013-06-22 19:46:00,83.2,77.5,29.97,ESE,109,9.0,15.0,83,0.00,CLR,,0.13,WeatherDisplay:10.37,2013-06-23 01:46:00,
2013-06-22 20:01:00,83.1,77.4,29.97,ESE,104,12.0,16.0,83,0.00,CLR,,0.13,WeatherDisplay:10.37,2013-06-23 02:01:00,
2013-06-22 20:15:00,83.1,77.8,29.97,ESE,107,12.0,16.0,84,0.00,CLR,,0.13,WeatherDisplay:10.37,2013-06-23 02:15:00,
2013-06-22 20:30:00,83.1,78.1,29.97,ESE,111,13.0,18.0,85,0.00,CLR,,0.13,WeatherDisplay:10.37,2013-06-23 02:30:00,
2013-06-22 20:45:00,83.0,77.3,29.98,ESE,103,9.0,16.0,83,0.00,CLR,,0.13,WeatherDisplay:10.37,2013-06-23 02:45:00,
2013-06-22 21:00:00,83.1,78.1,29.99,ESE,103,7.0,14.0,85,0.00,CLR,,0.13,WeatherDisplay:10.37,2013-06-23 03:00:00,
2013-06-22 21:15:00,82.8,77.5,29.99,ESE,103,12.0,14.0,84,0.00,CLR,,0.13,WeatherDisplay:10.37,2013-06-23 03:15:00,
2013-06-22 21:30:00,82.9,78.3,29.99,ESE,103,10.0,16.0,86,0.00,CLR,,0.13,WeatherDisplay:10.37,2013-06-23 03:30:00,
2013-06-22 21:45:00,82.9,78.0,29.99,East,100,10.0,19.0,85,0.00,CLR,,0.13,WeatherDisplay:10.37,2013-06-23 03:45:00,
2013-06-22 22:00:00,83.0,78.1,29.99,ESE,115,9.0,16.0,85,0.00,CLR,,0.13,WeatherDisplay:10.37,2013-06-23 04:00:00,
2013-06-22 22:15:00,83.0,78.0,29.99,East,96,10.0,16.0,85,0.00,CLR,,0.13,WeatherDisplay:10.37,2013-06-23 04:15:00,
2013-06-22 22:30:00,83.0,78.0,29.99,ESE,109,10.0,16.0,85,0.00,CLR,,0.13,WeatherDisplay:10.37,2013-06-23 04:30:00,
2013-06-22 22:45:00,83.0,77.7,29.99,ESE,104,7.0,18.0,84,0.00,CLR,,0.13,WeatherDisplay:10.37,2013-06-23 04:45:00,
2013-06-22 23:00:00,83.1,78.5,29.99,ESE,107,10.0,18.0,86,0.00,CLR,,0.13,WeatherDisplay:10.37,2013-06-23 05:00:00,
2013-06-22 23:15:00,83.2,77.5,29.99,ESE,108,13.0,20.0,83,0.00,CLR,,0.13,WeatherDisplay:10.37,2013-06-23 05:15:00,
2013-06-22 23:30:00,83.2,78.2,29.98,ESE,116,13.0,21.0,85,0.00,CLR,,0.13,WeatherDisplay:10.37,2013-06-23 05:30:00,
2013-06-22 23:45:00,83.2,77.9,29.98,East,101,9.0,20.0,84,0.00,CLR,,0.13,WeatherDisplay:10.37,2013-06-23 05:45:00,